Location: *
(50.9167°S, 179.4000°W)
Time: 19:50:24
(UTC+00:00)

Cosmos 1023 Rocket - Pass Details

Date: 03 March 2024
Orbit: 734 x 770 km, 74.1° (Epoch: 16 April)

Event Time Altitude Azimuth Distance (km) Brightness Sun altitude
Exits shadow 15:17:15 36° 337° (NNW) 1,209 5.1 -19.9°
Maximum altitude 15:19:28 90° 246° (WSW) 784 4.5 -19.6°
Drops below altitude 10° 15:24:47 10° 156° (SSE) 2,330 7.9 -19.0°
Sets 15:27:10 0° 155° (SSE) 3,256 8.9 -18.7°
